RUSSARO Weather Reports


time (UTC)temp
F
wind
direction
speed
knots
gust
knots
rain 1hr
in
rain 24hr
in
rain mn
in
humidity
%
barometer
mb
20260906044127 50 340 14.8 19.1 0.00 0.00 0.00 85 1006.8
20260906042454 50 342 14.8 20.9 0.00 0.00 0.00 86 1006.0
20260906040456 50 340 14.8 23.5 0.00 0.00 0.00 87 1006.2
20260906034126 50 340 16.5 24.3 0.00 0.00 0.00 86 1005.8
20260906032126 51 336 14.8 20.0 0.00 0.00 0.00 86 1005.4
20260906030457 51 339 15.6 22.6 0.00 0.00 0.00 86 1004.9
20260906024456 51 337 15.6 22.6 0.00 0.00 0.00 85 1005.1
20260906022457 51 339 15.6 22.6 0.00 0.00 0.00 86 1004.9
20260906020457 51 340 13.9 20.9 0.00 0.00 0.00 86 1004.7
20260906014458 51 339 18.2 24.3 0.00 0.00 0.00 83 1004.4
20260906012455 52 339 14.8 20.0 0.00 0.00 0.00 84 1004.2
20260906010457 52 343 17.4 23.5 0.00 0.00 0.00 83 1004.0
20260906004457 52 340 20.0 26.9 0.00 0.00 0.00 83 1003.7
20260906002456 53 335 16.5 23.5 0.00 0.00 0.00 83 1003.2
20260906000455 53 337 17.4 21.7 0.00 0.00 0.00 84 1003.1
20260905234455 54 335 13.0 18.2 0.00 0.00 0.00 85 1002.8
20260905232455 55 341 13.9 20.0 0.00 0.00 0.00 83 1002.5
20260905230455 56 348 14.8 20.0 0.00 0.00 0.00 79 1002.2
20260905224455 56 358 14.8 22.6 0.00 0.00 0.00 77 1002.0
20260905222455 57 350 11.3 16.5 0.00 0.00 0.00 82 1001.7
20260905220456 57 339 11.3 15.6 0.00 0.00 0.00 82 1001.6
20260905214455 58 332 13.0 17.4 0.00 0.00 0.00 82 1001.5
20260905212456 58 326 13.0 17.4 0.00 0.00 0.00 83 1001.2
20260905210125 59 322 13.0 16.5 0.00 0.00 0.00 82 1001.0
20260905204454 59 315 12.2 15.6 0.00 0.00 0.00 80 1000.8
20260905202454 59 314 13.0 15.6 0.00 0.00 0.00 79 1000.6
20260905200456 59 312 13.9 16.5 0.00 0.00 0.00 77 1000.5
20260905194125 60 307 13.0 15.6 0.00 0.00 0.00 79 1000.3
20260905192125 60 305 13.0 15.6 0.00 0.00 0.00 80 1000.2
20260905190454 60 308 13.0 15.6 0.00 0.00 0.00 78 1000.2
20260905184456 60 308 13.0 16.5 0.00 0.00 0.00 78 1000.0
20260905182454 60 306 13.9 16.5 0.00 0.00 0.00 78 1000.0
20260905180452 60 305 14.8 18.2 0.00 0.00 0.00 77 999.9
20260905174452 60 305 15.6 19.1 0.00 0.00 0.00 75 999.6
20260905172453 60 302 16.5 19.1 0.00 0.00 0.00 76 999.4
20260905170454 60 301 19.1 21.7 0.00 0.00 0.00 76 999.2
20260905164455 61 305 18.2 20.9 0.00 0.00 0.00 69 998.6
20260905162126 61 306 16.5 20.9 0.00 0.00 0.00 70 998.7
20260905160124 62 305 19.1 22.6 0.00 0.00 0.00 68 998.5
20260905154453 62 299 20.0 21.7 0.00 0.00 0.00 60 998.3
20260905152455 63 297 19.1 21.7 0.00 0.00 0.00 60 998.2
20260905150453 63 294 18.2 20.0 0.00 0.00 0.00 61 998.0
20260905144124 64 289 19.1 21.7 0.00 0.00 0.00 62 997.9
20260905142454 64 288 18.2 20.9 0.00 0.00 0.00 61 997.7
20260905140454 64 288 15.6 19.1 0.00 0.00 0.00 61 997.6
20260905134453 64 269 17.4 19.1 0.00 0.00 0.00 65 997.5
20260905132452 64 268 16.5 19.1 0.00 0.00 0.00 65 997.5
20260905130458 63 269 13.9 14.8 0.00 0.00 0.00 65 997.3
20260905124453 63 270 14.8 15.6 0.00 0.00 0.00 63 997.3
20260905122452 63 265 13.9 15.6 0.00 0.00 0.00 66 997.2
20260905120453 64 266 13.9 15.6 0.00 0.00 0.00 65 997.0
20260905114453 62 269 13.0 14.8 0.00 0.00 0.00 66 997.0
20260905112455 63 261 10.4 13.0 0.00 0.00 0.00 63 996.9
20260905110453 62 273 10.4 12.2 0.00 0.00 0.00 63 996.7
20260905104454 62 281 8.7 10.4 0.00 0.00 0.00 63 996.5
20260905102454 62 285 7.8 11.3 0.00 0.00 0.00 63 996.3
20260905100453 62 284 8.7 10.4 0.00 0.00 0.00 66 996.2
20260905094452 62 289 8.7 10.4 0.00 0.00 0.00 65 996.0
20260905092453 61 297 8.7 10.4 0.00 0.00 0.00 70 995.9
20260905084454 61 304 8.7 10.4 0.00 0.00 0.00 67 995.7
20260905082455 60 301 7.8 9.6 0.00 0.00 0.00 70 995.4
20260905080451 61 308 7.0 9.6 0.00 0.00 0.00 73 995.3
20260905074123 60 335 7.0 8.7 0.00 0.00 0.00 76 995.2
20260905072451 58 330 6.1 8.7 0.00 0.00 0.00 75 995.0
20260905070454 58 321 7.0 8.7 0.00 0.00 0.00 78 994.9
20260905064122 58 334 5.2 7.8 0.00 0.00 0.00 79 994.8
20260905062451 56 333 6.1 7.8 0.00 0.00 0.00 81 994.7
20260905060452 56 316 3.5 5.2 0.00 0.00 0.00 83 994.6
20260905054451 55 345 2.6 3.5 0.00 0.00 0.00 87 994.6
20260905052451 54 7 3.5 4.3 0.00 0.00 0.00 87 994.6